Regional Weather Roundup
Issued by NWS

Home | Current Version | Previous Version | Text Only | Print | Product List | Glossary Off
Versions: 1 2 3 4 5 6 7 8 9 10 11 12 13 14 15 16 17 18 19 20 21 22 23 24 25 26 27 28

000
ASUS45 KBOU 182107
RWRCO

WEATHER ROUNDUP FOR COLORADO
NATIONAL WEATHER SERVICE DENVER/BOULDER CO
300 PM MDT WED OCT 18 2017

NOTE: "FAIR" INDICATES FEW OR NO CLOUDS BELOW 12000 FEET WITH NO
SIGNIFICANT WEATHER AND/OR OBSTRUCTIONS TO VISIBILITY.

COZ001>005-013-030-031-182200-
...NORTHWEST COLORADO...

CITY           SKY/WX    TMP DP  RH WIND       PRES   REMARKS
CRAIG          FAIR      70   3   7 W6        30.21F
HAYDEN         NOT AVBL
MEEKER         FAIR      72   5   7 W7        30.21F
RABBIT EARS PA FAIR      52   9  17 W5        30.44F
STEAMBOAT SPGS FAIR      66   6   9 CALM      30.24F
WALDEN         FAIR      63  -2   7 SW14G24   30.30F
$$

COZ006>008-011-182200-
...WEST CENTRAL VALLEYS...

CITY           SKY/WX    TMP DP  RH WIND       PRES   REMARKS
GRAND JUNCTION FAIR      70  14  11 VRB3      30.16F
MONTROSE       FAIR      69  17  13 NW5       30.21F
EAGLE          FAIR      68   6   9 VRB3      30.25F
RIFLE          FAIR      71   5   7 NW3       30.19F
DELTA          FAIR      73  10   9 CALM      30.18F
NUCLA          FAIR      73  12   9 W3        30.23F
$$

COZ017>023-064>068-182200-
...SOUTHWEST COLORADO...

CITY           SKY/WX    TMP DP  RH WIND       PRES   REMARKS
DURANGO        FAIR      70  18  13 S7        30.23F
CORTEZ         FAIR      74  19  12 W5        30.20F
PAGOSA SPRINGS FAIR      67   4   8 CALM      30.29F
TELLURIDE      NOT AVBL
WOLF CREEK PAS FAIR      50   5  16 CALM      30.58S
$$

COZ009-010-012-014-032>034-037-058>063-182200-
...CENTRAL COLORADO...

CITY           SKY/WX    TMP DP  RH WIND       PRES   REMARKS
ASPEN          FAIR      69   0   6 N9        30.28F
BUENA VISTA    FAIR      65  -1   7 SE7       30.29F
COPPER MTN     FAIR      52   1  12 W7        30.53F
BERTHOUD PASS  FAIR      39  30  70 NW6       30.55S
COTTONWOOD PAS FAIR      63   1   8 SE6       30.41S
GUNNISON       FAIR      60  13  15 W8        30.32F
KREMMLING      FAIR      73  -8   4 W9        30.27F
LEADVILLE      FAIR      60  -5   7 N7        30.38F
SALIDA         NOT AVBL
SUNLIGHT       FAIR      48   3  15 CALM      30.50F
WILKERSON PASS FAIR      52  -6   9 W5        30.51F
$$

COZ069>075-182200-
...SAN LUIS VALLEY/SANGRE DE CRISTO MOUNTAINS...

CITY           SKY/WX    TMP DP  RH WIND       PRES   REMARKS
ALAMOSA        FAIR      68   9  10 N10       30.28F
DEL NORTE      FAIR      65  13  13 CALM      30.31F
LA VETA PASS   FAIR      59  14  17 NW5       30.54S
SAGUACHE       FAIR      63  14  15 SE7       30.31F
$$

COZ035-036-038>040-182200-
...NORTHERN COLORADO FRONT RANGE...

CITY           SKY/WX    TMP DP  RH WIND       PRES   REMARKS
DENVER INTL AP FAIR      77   9   7 N5        30.13F
DMNS CITY PARK   N/A     78  10   7 SW1G8     30.12S
AURORA         MOSUNNY   74   7   7 CALM      30.15F
FRONT RANGE AP MOSUNNY   77  10   8 SE6       30.15F
ERIE MUNI ARPT FAIR      77  12   8 SE7       30.15F
BOULDER MUN AP NOT AVBL
CENTENNIAL     FAIR      73   1   6 CALM      30.15F
BROOMFIELD     MOSUNNY   75  14   9 MISG      30.14F
FORT COLLINS   FAIR      78  21  12 S10       30.09F
LONGMONT       NOT AVBL
$$

COZ041-046-047-076>085-087-088-182200-
...PIKES PEAK/PALMER DIVIDE AND SOUTHERN FOOTHILLS...

CITY           SKY/WX    TMP DP  RH WIND       PRES   REMARKS
COLO. SPRINGS  FAIR      75   9   8 CALM      30.18F
A. F. ACADEMY  FAIR      72   1   6 CALM      30.18F
SCHRIEVER AFB  FAIR      73   8   8 E5        30.19F
CHEYENNE MTN   NOT AVBL
ELLICOTT       FAIR     N/A N/A N/A VRB3      30.17F
FALCON         FAIR      73   5   7 SE5       30.23F
FORT CARSON    FAIR      76   1   5 S7        30.15F
LIMON          FAIR      76  13   9 E6        30.13F
MONUMENT HILL  FAIR      68   9  10 CALM      30.25S
CANON CITY     SUNNY     79  12   8 CALM      30.13F
WALSENBURG     FAIR      77  16  10 NE7       30.18S
TRINIDAD       FAIR      78  19  11 NE10      30.15F
$$

COZ042>045-048>051-090-091-182200-
...NORTHEAST COLORADO...

CITY           SKY/WX    TMP DP  RH WIND       PRES   REMARKS
GREELEY ARPT   FAIR      78  13   8 S3        30.09F
AKRON          FAIR      77  14   9 NW8       30.10F
BURLINGTON     LGT RAIN  82  16   8 N13G18    30.07S
WRAY           FAIR      79  18  10 NE3       30.05F
YUMA           NOT AVBL
STERLING       FAIR      75  25  15 NE6G12    30.07R
HOLYOKE        FAIR      79  23  12 E7        30.07S
FORT MORGAN    FAIR      80  11   7 N8        30.09S
$$

COZ086-089-092>099-182200-
...SOUTHEAST COLORADO...

CITY           SKY/WX    TMP DP  RH WIND       PRES   REMARKS
PUEBLO         FAIR      81  12   7 S6        30.08F
LA JUNTA       FAIR      83  30  14 VRB3      30.05F
LAMAR          FAIR      82  27  13 SE10      30.02F
SPRINGFIELD      N/A     81  30  15 SE6       30.06S
$$




USA.gov is the U.S. government's official web portal to all federal, state and local government web resources and services.